Location: Baia de Cri?
(46.1667°N, 22.7167°E)
Time: 23:21:52
(UTC+00:00)

USA 307 - Pass Details

Date: 15 January 2026
Orbit: 495 x 502 km, 54.0° (Epoch: 10 March)

Event Time Altitude Azimuth Distance (km) Brightness Sun altitude
Exits shadow 04:32:02 23° 330° (NNW) 1,102 4.0 -16.1°
Maximum altitude 04:33:50 35° 18° (NNE) 832 3.7 -15.8°
Drops below altitude 10° 04:37:27 10° 85° (E) 1,662 6.4 -15.2°
Sets 04:39:39 0° 94° (E) 2,465 7.9 -14.9°
